timestamp,wind_dir_avg,wind_spd_avg,wind_spd_max_dir,wind_spd_gust,battery_voltage,lat,long
2023-10-18 00:04:01+00:00,60.0,4.45,55.0,5.23,12.41,47.59359,-54.27349
2023-10-18 00:14:01+00:00,48.0,3.84,54.0,4.83,12.41,47.59359,-54.27349
2023-10-18 00:24:01+00:00,55.0,5.35,54.0,6.42,12.41,47.59359,-54.27349
2023-10-18 00:34:01+00:00,28.0,4.86,33.0,5.98,12.41,47.59359,-54.27349
2023-10-18 00:44:01+00:00,47.0,5.62,53.0,6.42,12.41,47.59359,-54.27349
2023-10-18 00:54:01+00:00,42.0,5.59,46.0,6.85,12.41,47.59359,-54.27349
2023-10-18 01:04:01+00:00,23.0,5.56,32.0,6.71,12.41,47.59359,-54.27349
2023-10-18 01:14:01+00:00,16.0,5.93,12.0,6.99,12.41,47.59359,-54.27349
2023-10-18 01:24:01+00:00,42.0,4.86,42.0,5.24,12.41,47.59359,-54.27349
2023-10-18 01:34:01+00:00,31.0,4.93,39.0,6.67,12.41,47.59359,-54.27349
2023-10-18 01:44:01+00:00,12.0,5.18,11.0,5.71,12.41,47.59359,-54.27349
2023-10-18 01:54:01+00:00,16.0,4.74,31.0,6.62,12.41,47.59359,-54.27349
2023-10-18 02:04:01+00:00,8.0,4.94,1.0,6.07,12.41,47.59359,-54.27349
2023-10-18 02:14:01+00:00,21.0,5.02,24.0,6.63,12.41,47.59359,-54.27349
2023-10-18 02:24:01+00:00,20.0,5.29,15.0,6.15,12.41,47.59359,-54.27349
2023-10-18 02:34:01+00:00,35.0,5.63,28.0,6.47,12.41,47.59359,-54.27349
2023-10-18 02:44:01+00:00,47.0,4.28,55.0,5.64,12.41,47.59359,-54.27349
2023-10-18 02:54:01+00:00,24.0,4.35,23.0,5.22,12.41,47.59359,-54.27349
2023-10-18 03:04:01+00:00,40.0,4.17,30.0,5.19,12.41,47.59359,-54.27349
2023-10-18 03:14:01+00:00,19.0,3.67,17.0,4.62,12.33,47.59359,-54.27349
2023-10-18 03:24:01+00:00,16.0,4.57,15.0,5.46,12.33,47.59359,-54.27349
2023-10-18 03:34:01+00:00,12.0,4.5,14.0,5.57,12.33,47.59359,-54.27349
2023-10-18 03:44:01+00:00,22.0,4.01,23.0,5.34,12.33,47.59359,-54.27349
2023-10-18 03:54:01+00:00,8.0,3.79,11.0,4.61,12.33,47.59359,-54.27349
2023-10-18 04:04:01+00:00,17.0,2.97,7.0,4.15,12.33,47.59359,-54.27349
2023-10-18 04:14:00+00:00,357.0,5.31,356.0,6.2,12.33,47.59359,-54.27349
2023-10-18 04:24:00+00:00,357.0,5.12,0.0,5.98,12.33,47.59359,-54.27349
2023-10-18 04:34:00+00:00,357.0,4.37,357.0,5.23,12.33,47.59359,-54.27349
2023-10-18 04:44:00+00:00,358.0,4.95,3.0,5.9,12.33,47.59359,-54.27349
2023-10-18 04:54:00+00:00,2.0,4.59,358.0,5.26,12.33,47.59359,-54.27349
2023-10-18 05:04:00+00:00,8.0,4.29,6.0,5.13,12.33,47.59359,-54.27349
2023-10-18 05:14:00+00:00,8.0,3.9,13.0,4.65,12.33,47.59359,-54.27349
2023-10-18 05:24:00+00:00,359.0,4.05,0.0,5.08,12.33,47.59359,-54.27349
2023-10-18 05:34:00+00:00,5.0,3.45,11.0,4.12,12.33,47.59359,-54.27349
2023-10-18 05:44:00+00:00,354.0,3.15,358.0,3.69,12.33,47.59359,-54.27349
2023-10-18 05:54:00+00:00,0.0,3.63,358.0,4.65,12.33,47.59359,-54.27349
2023-10-18 06:04:00+00:00,355.0,3.85,353.0,4.76,12.33,47.59359,-54.27349
2023-10-18 06:14:00+00:00,358.0,3.36,3.0,3.96,12.25,47.59359,-54.27349
2023-10-18 06:24:00+00:00,338.0,2.97,340.0,3.56,12.25,47.59359,-54.27349
2023-10-18 06:34:00+00:00,337.0,3.81,341.0,4.54,12.25,47.59359,-54.27349
2023-10-18 06:44:00+00:00,342.0,3.69,344.0,4.43,12.25,47.59359,-54.27349
2023-10-18 06:54:00+00:00,345.0,4.11,348.0,4.66,12.25,47.59359,-54.27349
2023-10-18 07:04:00+00:00,345.0,3.63,342.0,4.04,12.25,47.59359,-54.27349
2023-10-18 07:14:00+00:00,347.0,3.5,349.0,4.18,12.25,47.59359,-54.27349
2023-10-18 07:24:00+00:00,349.0,3.61,348.0,4.32,12.25,47.59359,-54.27349
2023-10-18 07:34:00+00:00,349.0,3.61,354.0,4.11,12.25,47.59359,-54.27349
2023-10-18 07:44:00+00:00,353.0,3.49,351.0,4.19,12.25,47.59359,-54.27349
2023-10-18 07:54:00+00:00,351.0,3.75,357.0,4.92,12.25,47.59359,-54.27349
2023-10-18 08:04:00+00:00,358.0,4.19,349.0,4.62,12.25,47.59359,-54.27349
2023-10-18 08:14:01+00:00,349.0,3.79,348.0,4.68,12.25,47.59359,-54.27349
2023-10-18 08:24:01+00:00,358.0,3.24,359.0,4.22,12.25,47.59359,-54.27349
2023-10-18 08:34:01+00:00,357.0,2.81,359.0,3.21,12.25,47.59359,-54.27349
2023-10-18 08:44:01+00:00,8.0,2.8,5.0,3.17,12.25,47.59359,-54.27349
2023-10-18 08:54:01+00:00,357.0,3.26,1.0,3.71,12.25,47.59359,-54.27349
2023-10-18 09:04:01+00:00,2.0,2.62,359.0,3.04,12.25,47.59359,-54.27349
2023-10-18 09:14:00+00:00,16.0,3.12,17.0,3.53,12.17,47.59359,-54.27349
2023-10-18 09:24:00+00:00,352.0,2.48,351.0,2.85,12.17,47.59359,-54.27349
2023-10-18 09:34:00+00:00,300.0,2.31,311.0,2.77,12.17,47.59359,-54.27349
2023-10-18 09:44:00+00:00,304.0,2.18,317.0,3.04,12.17,47.59359,-54.27349
2023-10-18 09:54:00+00:00,299.0,1.46,304.0,1.83,12.17,47.59359,-54.27349
2023-10-18 10:04:00+00:00,322.0,2.02,312.0,2.81,12.17,47.59359,-54.27349
2023-10-18 10:14:01+00:00,323.0,1.03,301.0,1.54,12.17,47.59359,-54.27349
2023-10-18 10:24:01+00:00,319.0,2.33,320.0,2.82,12.17,47.59359,-54.27349
2023-10-18 10:34:01+00:00,346.0,1.78,349.0,2.06,12.17,47.59359,-54.27349
2023-10-18 10:44:01+00:00,357.0,1.35,348.0,2.2,12.17,47.59359,-54.27349
2023-10-18 10:54:01+00:00,320.0,2.24,326.0,3.01,12.17,47.59359,-54.27349
2023-10-18 11:04:01+00:00,300.0,1.53,306.0,2.53,12.17,47.59359,-54.27349
2023-10-18 11:14:01+00:00,298.0,1.56,301.0,2.55,12.41,47.59359,-54.27349
2023-10-18 11:24:01+00:00,312.0,1.76,313.0,2.15,12.41,47.59359,-54.27349
2023-10-18 11:34:01+00:00,304.0,1.12,318.0,1.6,12.41,47.59359,-54.27349
2023-10-18 11:44:01+00:00,293.0,0.51,293.0,0.75,12.41,47.59359,-54.27349
2023-10-18 11:54:01+00:00,284.0,0.92,286.0,1.36,12.41,47.59359,-54.27349
2023-10-18 12:04:01+00:00,268.0,2.03,267.0,2.63,12.41,47.59359,-54.27349
2023-10-18 12:14:01+00:00,269.0,2.59,273.0,3.03,13.68,47.59359,-54.27349
2023-10-18 12:24:01+00:00,286.0,2.49,279.0,2.96,13.68,47.59359,-54.27349
2023-10-18 12:34:01+00:00,267.0,3.46,268.0,4.45,13.68,47.59359,-54.27349
2023-10-18 12:44:01+00:00,262.0,4.38,269.0,5.12,13.68,47.59359,-54.27349
2023-10-18 12:54:01+00:00,252.0,4.55,256.0,5.48,13.68,47.59359,-54.27349
2023-10-18 13:04:01+00:00,253.0,4.83,252.0,5.51,13.68,47.59359,-54.27349
2023-10-18 13:14:01+00:00,250.0,5.29,251.0,6.32,13.76,47.59359,-54.27349
2023-10-18 13:24:01+00:00,259.0,2.88,261.0,3.7,13.76,47.59359,-54.27349
2023-10-18 13:34:01+00:00,236.0,3.63,233.0,4.21,13.76,47.59359,-54.27349
2023-10-18 13:44:01+00:00,236.0,2.89,235.0,3.55,13.76,47.59359,-54.27349
2023-10-18 13:54:01+00:00,242.0,3.96,234.0,4.74,13.76,47.59359,-54.27349
2023-10-18 14:04:01+00:00,232.0,4.14,238.0,5.22,13.76,47.59359,-54.27349
2023-10-18 14:14:00+00:00,244.0,4.88,242.0,5.76,14.32,47.59359,-54.27349
2023-10-18 14:24:00+00:00,262.0,4.53,269.0,5.67,14.32,47.59359,-54.27349
2023-10-18 14:34:00+00:00,264.0,4.48,258.0,6.25,14.32,47.59359,-54.27349
2023-10-18 14:44:00+00:00,275.0,7.21,275.0,7.75,14.32,47.59359,-54.27349
2023-10-18 14:54:00+00:00,271.0,5.82,271.0,7.05,14.32,47.59359,-54.27349
2023-10-18 15:04:00+00:00,281.0,7.95,287.0,8.93,14.32,47.59359,-54.27349
2023-10-18 15:14:00+00:00,281.0,5.42,283.0,6.98,14.64,47.59359,-54.27349
2023-10-18 15:24:00+00:00,294.0,7.04,295.0,8.09,14.64,47.59359,-54.27349
2023-10-18 15:34:00+00:00,272.0,7.38,269.0,8.2,14.64,47.59359,-54.27349
2023-10-18 15:44:00+00:00,283.0,6.97,285.0,8.49,14.64,47.59359,-54.27349
2023-10-18 15:54:00+00:00,301.0,7.31,289.0,9.01,14.64,47.59359,-54.27349
2023-10-18 16:04:00+00:00,289.0,7.53,291.0,9.78,14.64,47.59359,-54.27349
2023-10-18 16:14:00+00:00,307.0,5.8,307.0,6.45,14.08,47.59359,-54.27349
2023-10-18 16:24:00+00:00,320.0,5.14,318.0,6.33,14.08,47.59359,-54.27349
2023-10-18 16:34:00+00:00,290.0,5.57,294.0,7.36,14.08,47.59359,-54.27349
2023-10-18 16:44:00+00:00,289.0,8.66,290.0,10.1,14.08,47.59359,-54.27349
2023-10-18 16:54:00+00:00,281.0,7.04,289.0,8.34,14.08,47.59359,-54.27349
2023-10-18 17:04:00+00:00,281.0,9.59,281.0,10.49,14.08,47.59359,-54.27349
2023-10-18 17:14:01+00:00,291.0,8.21,296.0,9.45,13.68,47.59359,-54.27349
2023-10-18 17:24:01+00:00,291.0,7.43,287.0,8.54,13.68,47.59359,-54.27349
2023-10-18 17:34:01+00:00,289.0,8.9,288.0,9.96,13.68,47.59359,-54.27349
2023-10-18 17:44:01+00:00,278.0,6.87,281.0,7.81,13.68,47.59359,-54.27349
2023-10-18 17:54:01+00:00,280.0,6.74,277.0,7.51,13.68,47.59359,-54.27349
2023-10-18 18:04:01+00:00,276.0,6.55,277.0,7.37,13.68,47.59359,-54.27349
2023-10-18 18:14:00+00:00,276.0,6.87,271.0,7.74,14.4,47.59359,-54.27349
2023-10-18 18:24:00+00:00,281.0,5.66,278.0,6.32,14.4,47.59359,-54.27349
2023-10-18 18:34:00+00:00,247.0,5.67,238.0,6.42,14.4,47.59359,-54.27349
2023-10-18 18:44:00+00:00,232.0,5.93,230.0,7.48,14.4,47.59359,-54.27349
2023-10-18 18:54:00+00:00,225.0,6.45,225.0,7.39,14.4,47.59359,-54.27349
2023-10-18 19:04:00+00:00,263.0,6.74,275.0,8.67,14.4,47.59359,-54.27349
2023-10-18 19:14:01+00:00,267.0,6.26,274.0,7.08,13.44,47.59359,-54.27349
2023-10-18 19:24:01+00:00,282.0,8.73,284.0,9.65,13.44,47.59359,-54.27349
2023-10-18 19:34:01+00:00,271.0,7.52,271.0,8.19,13.44,47.59359,-54.27349
2023-10-18 19:44:01+00:00,281.0,7.44,283.0,8.23,13.44,47.59359,-54.27349
2023-10-18 19:54:01+00:00,277.0,6.38,273.0,8.81,13.44,47.59359,-54.27349
2023-10-18 20:04:01+00:00,279.0,6.4,270.0,7.77,13.44,47.59359,-54.27349
2023-10-18 20:14:00+00:00,273.0,7.61,272.0,8.39,13.37,47.59359,-54.27349
2023-10-18 20:24:00+00:00,276.0,6.76,283.0,7.65,13.37,47.59359,-54.27349
2023-10-18 20:34:00+00:00,279.0,7.22,283.0,8.33,13.37,47.59359,-54.27349
2023-10-18 20:44:00+00:00,275.0,6.16,278.0,6.8,13.37,47.59359,-54.27349
2023-10-18 20:54:00+00:00,274.0,6.78,271.0,7.56,13.37,47.59359,-54.27349
2023-10-18 21:04:00+00:00,280.0,6.54,275.0,7.31,13.37,47.59359,-54.27349
2023-10-18 21:14:01+00:00,280.0,5.39,277.0,6.19,12.81,47.59359,-54.27349
2023-10-18 21:24:01+00:00,278.0,5.94,271.0,6.44,12.81,47.59359,-54.27349
2023-10-18 21:34:01+00:00,269.0,5.71,263.0,6.48,12.81,47.59359,-54.27349
2023-10-18 21:44:01+00:00,271.0,5.43,273.0,5.88,12.81,47.59359,-54.27349
2023-10-18 21:54:01+00:00,268.0,4.8,271.0,5.56,12.81,47.59359,-54.27349
2023-10-18 22:04:01+00:00,267.0,5.06,272.0,5.73,12.81,47.59359,-54.27349
2023-10-18 22:14:00+00:00,274.0,5.58,269.0,6.12,12.49,47.59359,-54.27349
2023-10-18 22:24:00+00:00,265.0,6.0,264.0,7.41,12.49,47.59359,-54.27349
2023-10-18 22:34:00+00:00,266.0,6.6,264.0,7.24,12.49,47.59359,-54.27349
2023-10-18 22:44:00+00:00,266.0,6.68,266.0,7.23,12.49,47.59359,-54.27349
2023-10-18 22:54:00+00:00,256.0,6.76,257.0,7.66,12.49,47.59359,-54.27349
2023-10-18 23:04:00+00:00,256.0,6.34,256.0,7.01,12.49,47.59359,-54.27349
2023-10-18 23:14:00+00:00,257.0,5.78,260.0,6.43,12.41,47.59359,-54.27349
2023-10-18 23:24:00+00:00,270.0,6.05,275.0,7.07,12.41,47.59359,-54.27349
2023-10-18 23:34:00+00:00,277.0,5.98,278.0,6.88,12.41,47.59359,-54.27349
2023-10-18 23:44:00+00:00,274.0,5.63,273.0,6.14,12.41,47.59359,-54.27349
2023-10-18 23:54:00+00:00,277.0,4.89,276.0,5.93,12.41,47.59359,-54.27349
